EW5647 Weather Reports


time (UTC)temp
C
wind
direction
speed
KPH
gust
KPH
rain 1hr
cm
rain 24hr
cm
rain mn
cm
humidity
%
barometer
mb
20260510010118 11 209 3.2 3.2 0.18 1.17 1.17 98 1009.0
20260510005613 11 207 1.6 1.6 0.30 1.17 1.17 98 1009.1
20260510005111 11 206 1.6 3.2 0.13 1.14 1.14 98 1008.9
20260510004609 11 207 3.2 3.2 0.18 1.12 1.12 98 1009.1
20260510004107 11 278 0.0 0.0 0.30 1.12 1.12 97 1009.4
20260510003604 12 278 0.0 0.0 0.13 1.09 1.09 97 1010.0
20260510003059 12 311 0.0 0.0 0.30 1.09 1.09 97 1009.9
20260510002554 12 311 0.0 0.0 0.30 1.07 1.07 96 1009.3
20260510002051 12 34 1.6 1.6 0.30 1.04 1.04 96 1009.2
20260510001549 12 78 4.8 8.0 0.36 1.02 1.02 95 1009.3
20260510001048 12 314 0.0 1.6 0.18 0.99 0.99 94 1009.2
20260510000542 12 317 4.8 8.0 0.30 0.99 0.99 92 1009.1
20260510000039 13 326 4.8 9.7 0.13 0.97 0.97 89 1008.7
20260509235536 15 21 1.6 3.2 0.00 0.94 0.94 83 1008.1
20260509235033 17 251 0.0 0.0 0.00 0.94 0.94 73 1007.3
20260509234529 17 214 1.6 1.6 0.00 0.94 0.94 65 1007.0
20260509234027 18 214 3.2 4.8 0.00 0.94 0.94 63 1006.7
20260509233524 18 216 1.6 1.6 0.00 0.94 0.94 66 1006.9
20260509233021 18 215 3.2 3.2 0.00 0.94 0.94 65 1006.4
20260509232518 18 214 0.0 0.0 0.00 0.94 0.94 65 1006.6
20260509232014 18 204 3.2 4.8 0.00 0.94 0.94 64 1006.5
20260509231511 18 203 0.0 1.6 0.00 0.94 0.94 67 1006.2
20260509231009 18 204 1.6 1.6 0.00 0.94 0.94 65 1006.0
20260509230505 18 203 0.0 1.6 0.00 0.94 0.94 64 1005.9
20260509230002 18 185 1.6 3.2 0.00 0.94 0.94 63 1006.1
20260509225458 18 217 3.2 3.2 0.00 0.94 0.94 64 1006.4
20260509224953 18 215 1.6 1.6 0.00 0.94 0.94 64 1006.5
20260509224449 18 215 1.6 1.6 0.00 0.94 0.94 64 1006.1
20260509223946 18 214 4.8 8.0 0.00 0.94 0.94 62 1006.2
20260509223443 18 205 1.6 3.2 0.00 0.94 0.94 65 1006.1
20260509222940 18 180 3.2 3.2 0.00 0.94 0.94 62 1005.9
20260509222435 18 180 3.2 3.2 0.00 0.94 0.94 63 1006.0
20260509221931 18 199 3.2 3.2 0.00 0.94 0.94 62 1006.2
20260509221429 19 199 6.4 8.0 0.00 0.94 0.94 61 1006.1
20260509220924 18 203 4.8 4.8 0.00 0.94 0.94 61 1006.1
20260509220420 18 178 3.2 3.2 0.00 0.94 0.94 61 1006.0
20260509215917 18 197 3.2 3.2 0.00 0.94 0.94 64 1006.2
20260509215412 19 198 3.2 4.8 0.00 0.94 0.94 62 1005.8
20260509214910 19 197 1.6 3.2 0.00 0.94 0.94 62 1006.1
20260509214407 19 165 4.8 4.8 0.00 0.94 0.94 62 1006.0
20260509213904 19 188 1.6 1.6 0.00 0.94 0.94 62 1006.2
20260509213359 18 170 3.2 4.8 0.00 0.94 0.94 62 1006.0
20260509212857 18 240 0.0 0.0 0.00 0.94 0.94 65 1005.9
20260509212354 18 229 0.0 1.6 0.00 0.94 0.94 64 1006.2
20260509211850 18 225 4.8 4.8 0.00 0.94 0.94 64 1006.1
20260509211346 19 209 0.0 0.0 0.00 0.94 0.94 63 1006.2
20260509210843 18 185 3.2 4.8 0.00 0.94 0.94 67 1006.1
20260509210341 18 177 6.4 9.7 0.00 0.94 0.94 60 1006.1
20260509205840 18 221 1.6 1.6 0.00 0.94 0.94 62 1006.4
20260509205335 18 222 3.2 3.2 0.00 0.94 0.94 62 1006.2
20260509204832 18 213 3.2 4.8 0.00 0.94 0.94 65 1006.2
20260509204328 19 213 3.2 4.8 0.00 0.94 0.94 64 1006.5
20260509203824 18 212 4.8 4.8 0.00 0.94 0.94 64 1006.6
20260509203321 18 193 1.6 3.2 0.00 0.94 0.94 62 1006.7
20260509202817 19 170 8.0 11.3 0.00 0.94 0.94 62 1006.7
20260509202314 19 197 1.6 1.6 0.00 0.94 0.94 60 1006.8
20260509201813 18 199 1.6 1.6 0.00 0.94 0.94 65 1007.0
20260509201310 18 188 3.2 3.2 0.00 0.94 0.94 65 1007.1
20260509200806 18 175 3.2 3.2 0.00 0.94 0.94 64 1007.0
20260509200302 18 206 3.2 3.2 0.00 0.94 0.94 65 1007.2
20260509195758 19 136 1.6 4.8 0.00 0.94 0.94 66 1007.4
20260509195254 18 223 3.2 3.2 0.00 0.94 0.94 64 1007.4
20260509194748 18 184 1.6 3.2 0.00 0.94 0.94 62 1007.2
20260509194244 18 178 4.8 8.0 0.00 0.94 0.94 69 1007.1
20260509193741 18 266 0.0 1.6 0.00 0.94 0.94 68 1007.5
20260509193241 18 228 3.2 3.2 0.00 0.94 0.94 65 1007.7
20260509192737 18 212 1.6 3.2 0.00 0.94 0.94 69 1007.8
20260509192232 18 213 3.2 3.2 0.00 0.94 0.94 67 1007.7
20260509191728 18 225 3.2 3.2 0.00 0.94 0.94 66 1007.6
20260509191225 18 224 1.6 1.6 0.00 0.94 0.94 67 1007.6
20260509190721 18 178 1.6 1.6 0.00 0.94 0.94 66 1007.5
20260509190218 18 207 4.8 4.8 0.00 0.94 0.94 66 1007.3
20260509185716 18 204 4.8 4.8 0.00 0.94 0.94 66 1007.6
20260509185212 17 271 0.0 1.6 0.00 0.94 0.94 72 1007.8
20260509184709 17 263 3.2 3.2 0.00 0.94 0.94 70 1007.8
20260509184206 17 212 4.8 8.0 0.00 0.94 0.94 69 1008.0
20260509183702 17 209 3.2 4.8 0.00 0.94 0.94 75 1008.0
20260509183158 17 259 1.6 3.2 0.00 0.94 0.94 72 1008.1
20260509182653 17 245 4.8 4.8 0.00 0.94 0.94 73 1008.1
20260509182151 17 233 1.6 1.6 0.00 0.94 0.94 76 1008.2
20260509181649 17 223 4.8 4.8 0.00 0.94 0.94 73 1008.1
20260509181146 17 239 1.6 3.2 0.00 0.94 0.94 73 1007.9
20260509180643 16 214 3.2 3.2 0.00 0.94 0.94 75 1007.8
20260509180139 17 182 4.8 8.0 0.00 0.94 0.94 77 1008.0
20260509175635 16 208 3.2 3.2 0.00 0.94 0.94 76 1007.9
20260509175132 16 279 1.6 1.6 0.00 0.94 0.94 83 1008.1
20260509174628 16 228 3.2 3.2 0.00 0.94 0.94 83 1008.2
20260509174123 16 264 1.6 3.2 0.00 0.94 0.94 83 1008.2
20260509173619 16 265 0.0 1.6 0.00 0.94 0.94 83 1008.2
20260509173115 16 228 3.2 3.2 0.00 0.94 0.94 80 1008.3
20260509172612 16 175 0.0 1.6 0.00 0.94 0.94 82 1008.3
20260509172108 16 255 1.6 1.6 0.00 0.94 0.94 88 1008.2
20260509171604 15 254 1.6 1.6 0.00 0.94 0.94 86 1008.4
20260509171100 15 221 3.2 3.2 0.00 0.94 0.94 87 1008.2
20260509170557 15 219 0.0 1.6 0.00 0.94 0.94 90 1008.3
20260509170052 14 219 1.6 3.2 0.00 0.94 0.94 91 1008.4
20260509165551 15 263 1.6 3.2 0.18 0.94 0.94 94 1008.5
20260509165047 14 240 1.6 1.6 0.18 0.94 0.94 97 1008.5
20260509164543 13 288 1.6 1.6 0.00 0.91 0.91 98 1008.7
20260509164044 13 305 0.0 1.6 0.00 0.91 0.91 99 1009.1
20260509163543 13 286 0.0 1.6 0.00 0.91 0.91 99 1008.8
20260509163037 12 276 0.0 0.0 0.00 0.91 0.91 99 1008.7
20260509162535 12 292 0.0 1.6 0.00 0.91 0.91 99 1008.9
20260509162031 12 276 0.0 0.0 0.00 0.91 0.91 99 1008.9
20260509161527 12 276 1.6 1.6 0.00 0.91 0.91 99 1008.8
20260509161022 12 275 0.0 1.6 0.13 0.91 0.91 99 1008.6
20260509160518 12 275 1.6 1.6 0.13 0.91 0.91 99 1008.7
20260509160014 12 307 0.0 0.0 0.13 0.91 0.91 99 1008.3
20260509155510 12 276 0.0 0.0 0.00 0.89 0.89 99 1008.6
20260509155006 12 276 0.0 0.0 0.00 0.89 0.89 99 1008.6
20260509154503 12 276 0.0 0.0 0.00 0.89 0.89 99 1008.2
20260509154000 12 276 0.0 0.0 0.00 0.89 0.89 99 1008.4
20260509153457 12 276 0.0 0.0 0.00 0.89 0.89 99 1008.4
20260509152954 12 276 0.0 1.6 0.00 0.89 0.89 99 1008.5
20260509152449 12 276 0.0 1.6 0.18 0.89 0.89 99 1008.4
20260509151947 12 276 0.0 0.0 0.18 0.89 0.89 99 1008.5
20260509151443 11 276 0.0 0.0 0.00 0.86 0.86 99 1008.6
20260509150941 11 276 0.0 0.0 0.00 0.86 0.86 99 1008.5
20260509150438 11 276 0.0 0.0 0.00 0.86 0.86 99 1008.4
20260509145936 11 276 0.0 0.0 0.00 0.86 0.86 99 1008.6
20260509145431 11 276 0.0 0.0 0.00 0.86 0.86 99 1008.5
20260509144927 11 276 0.0 0.0 0.00 0.86 0.86 99 1008.3
20260509144424 11 275 0.0 0.0 0.13 0.86 0.86 99 1008.6
20260509143921 11 276 0.0 0.0 0.13 0.86 0.86 99 1008.6
20260509143418 11 276 0.0 0.0 0.00 0.84 0.84 99 1008.6
20260509142914 11 276 0.0 0.0 0.00 0.84 0.84 99 1008.7
20260509142411 11 276 0.0 0.0 0.00 0.84 0.84 99 1008.4
20260509141906 11 276 0.0 1.6 0.00 0.84 0.84 99 1008.6
20260509141404 11 276 0.0 0.0 0.00 0.84 0.84 99 1008.6
20260509140900 10 276 0.0 0.0 0.18 0.84 0.84 99 1008.5
20260509140357 10 276 0.0 0.0 0.18 0.84 0.84 99 1008.5
20260509135855 10 276 0.0 0.0 0.00 0.81 0.81 99 1008.4
20260509135352 10 276 1.6 1.6 0.00 0.81 0.81 99 1008.7
20260509134849 10 276 0.0 0.0 0.00 0.81 0.81 99 1008.6
20260509134347 10 268 1.6 1.6 0.00 0.81 0.81 99 1008.5
20260509133843 10 276 0.0 0.0 0.00 0.81 0.81 99 1008.7
20260509133340 10 276 0.0 0.0 0.13 0.81 0.81 99 1008.7
20260509132839 10 276 0.0 0.0 0.13 0.81 0.81 99 1008.6
20260509132337 10 276 0.0 0.0 0.00 0.79 0.79 99 1008.6
20260509131834 10 276 0.0 1.6 0.00 0.79 0.79 99 1009.1
20260509131330 10 276 0.0 0.0 0.00 0.79 0.79 99 1008.9
20260509130827 10 276 0.0 0.0 0.18 0.79 0.79 99 1008.9
20260509130323 10 276 0.0 0.0 0.18 0.79 0.79 99 1008.7
20260509125819 10 276 0.0 0.0 0.00 0.76 0.76 99 1008.8
20260509125316 10 276 0.0 0.0 0.00 0.76 0.76 99 1008.7
20260509124812 10 276 0.0 0.0 0.00 0.76 0.76 99 1008.7
20260509124309 10 276 0.0 0.0 0.00 0.76 0.76 99 1008.6
20260509123808 10 276 0.0 0.0 0.13 0.76 0.76 99 1008.9
20260509123304 10 276 0.0 0.0 0.13 0.76 0.76 99 1008.8
20260509122800 10 276 0.0 0.0 0.00 0.74 0.74 99 1008.8
20260509122257 10 276 0.0 0.0 0.00 0.74 0.74 99 1008.7
20260509121754 10 276 0.0 0.0 0.00 0.74 0.74 99 1008.9
20260509121251 10 276 0.0 1.6 0.18 0.74 0.74 99 1009.1
20260509120749 10 276 0.0 0.0 0.18 0.74 0.74 99 1009.0
20260509120247 10 276 0.0 0.0 0.00 0.71 0.71 99 1009.1
20260509115745 10 276 0.0 0.0 0.00 0.71 0.71 99 1009.1
20260509115241 10 273 1.6 1.6 0.13 0.71 0.71 99 1008.9
20260509114739 10 275 1.6 1.6 0.13 0.71 0.71 99 1009.0
20260509114238 10 276 0.0 0.0 0.00 0.69 0.69 99 1008.8
20260509113736 10 274 1.6 1.6 0.00 0.69 0.69 99 1008.8
20260509113233 10 276 0.0 1.6 0.18 0.69 0.69 99 1008.9
20260509112730 10 276 0.0 0.0 0.18 0.69 0.69 99 1009.1
20260509112227 10 276 0.0 0.0 0.00 0.66 0.66 99 1009.0
20260509111724 10 276 0.0 0.0 0.00 0.66 0.66 99 1009.0
20260509111221 10 276 0.0 0.0 0.18 0.66 0.66 99 1008.9
20260509110718 10 276 0.0 0.0 0.18 0.66 0.66 99 1008.8
20260509110215 10 276 0.0 0.0 0.18 0.66 0.66 99 1009.1
20260509105713 10 276 0.0 0.0 0.00 0.64 0.64 99 1009.0
20260509105204 10 276 0.0 0.0 0.13 0.64 0.64 99 1009.0
20260509104701 10 276 0.0 0.0 0.13 0.64 0.64 99 1008.9
20260509104158 10 276 0.0 0.0 0.13 0.64 0.64 99 1008.9
20260509103656 9 272 1.6 1.6 0.00 0.61 0.61 99 1008.9
20260509103154 9 276 0.0 0.0 0.00 0.61 0.61 99 1008.9
20260509102652 9 275 1.6 1.6 0.18 0.61 0.61 99 1008.8
20260509102148 9 276 0.0 0.0 0.18 0.61 0.61 99 1009.0
20260509101644 9 276 0.0 0.0 0.00 0.58 0.58 99 1009.0
20260509101141 9 264 1.6 3.2 0.13 0.58 0.58 99 1008.9
20260509100638 9 275 0.0 0.0 0.13 0.58 0.58 99 1008.9
20260509100135 9 283 0.0 0.0 0.00 0.56 0.56 99 1009.0
20260509095632 9 283 0.0 0.0 0.00 0.56 0.56 99 1009.0
20260509095129 9 283 0.0 0.0 0.18 0.56 0.56 99 1008.8
20260509094626 9 282 0.0 0.0 0.18 0.56 0.56 99 1009.2
20260509094123 9 276 0.0 1.6 0.00 0.53 0.53 99 1009.0
20260509093622 9 267 1.6 1.6 0.13 0.53 0.53 99 1009.2
20260509093118 9 267 0.0 1.6 0.13 0.53 0.53 99 1009.2
20260509092616 9 254 1.6 3.2 0.00 0.51 0.51 99 1009.1
20260509092114 9 248 1.6 1.6 0.18 0.51 0.51 99 1009.2
20260509091612 9 226 3.2 3.2 0.18 0.51 0.51 99 1009.0
20260509091108 9 258 1.6 1.6 0.18 0.51 0.51 99 1009.2
20260509090606 9 254 1.6 1.6 0.00 0.48 0.48 99 1009.4
20260509085600 9 307 3.2 3.2 0.13 0.48 0.48 99 1009.4
20260509085056 9 269 0.0 0.0 0.00 0.46 0.46 99 1009.3
20260509084553 9 208 3.2 3.2 0.18 0.46 0.46 99 1009.6
20260509084050 9 200 3.2 3.2 0.18 0.46 0.46 99 1009.4
20260509083547 9 254 3.2 3.2 0.00 0.43 0.43 99 1009.6
20260509083044 9 270 0.0 0.0 0.13 0.43 0.43 99 1009.6
20260509082542 9 250 1.6 1.6 0.13 0.43 0.43 99 1009.3
20260509082039 9 250 1.6 1.6 0.00 0.41 0.41 99 1009.6
20260509081536 9 250 1.6 1.6 0.18 0.41 0.41 99 1009.7
20260509081033 9 249 1.6 1.6 0.18 0.41 0.41 99 1009.4
20260509080531 9 176 3.2 3.2 0.00 0.38 0.38 99 1009.7
20260509080029 9 144 1.6 1.6 0.13 0.38 0.38 99 1009.8
20260509075526 9 144 0.0 0.0 0.13 0.38 0.38 99 1009.9
20260509075024 9 144 0.0 0.0 0.13 0.38 0.38 99 1009.6
20260509074520 9 144 0.0 0.0 0.00 0.36 0.36 99 1009.8
20260509074017 9 144 0.0 0.0 0.18 0.36 0.36 99 1009.8
20260509073513 9 144 0.0 0.0 0.18 0.36 0.36 99 1009.4
20260509073010 9 144 0.0 0.0 0.00 0.33 0.33 99 1009.8
20260509072507 9 144 1.6 1.6 0.18 0.33 0.33 99 1009.4
20260509072003 9 144 0.0 1.6 0.18 0.33 0.33 99 1009.4
20260509071500 9 144 1.6 1.6 0.00 0.30 0.30 99 1009.4
20260509070958 9 145 0.0 1.6 0.00 0.30 0.30 99 1009.6
20260509070455 9 149 3.2 3.2 0.13 0.30 0.30 99 1009.8
20260509065950 9 149 1.6 3.2 0.13 0.30 0.30 99 1009.7
20260509065446 9 154 1.6 1.6 0.00 0.28 0.28 99 1009.7
20260509064942 9 154 0.0 0.0 0.18 0.28 0.28 99 1010.0
20260509064440 9 188 3.2 3.2 0.18 0.28 0.28 99 1010.0
20260509063938 9 272 0.0 0.0 0.00 0.25 0.25 99 1010.1
20260509063433 9 256 1.6 1.6 0.13 0.25 0.25 99 1010.0
20260509062930 9 232 1.6 3.2 0.13 0.25 0.25 99 1009.9
20260509062428 9 270 0.0 0.0 0.00 0.23 0.23 99 1010.2
20260509061925 9 261 1.6 1.6 0.18 0.23 0.23 99 1010.4
20260509061423 9 256 0.0 1.6 0.18 0.23 0.23 99 1010.4
20260509060919 9 120 0.0 1.6 0.00 0.20 0.20 99 1010.3
20260509060417 9 119 1.6 1.6 0.13 0.20 0.20 99 1010.5
20260509055912 9 119 1.6 1.6 0.13 0.20 0.20 99 1010.5
20260509055407 9 144 3.2 3.2 0.13 0.20 0.20 99 1010.5
20260509054904 9 144 1.6 1.6 0.00 0.18 0.18 99 1010.5
20260509054401 9 145 1.6 1.6 0.18 0.18 0.18 99 1010.6
20260509053859 9 145 1.6 1.6 0.18 0.18 0.18 99 1011.1
20260509053356 9 144 1.6 1.6 0.00 0.15 0.15 99 1011.2
20260509052855 9 142 1.6 1.6 0.13 0.15 0.15 99 1011.0
20260509052351 9 141 1.6 1.6 0.13 0.15 0.15 99 1011.0
20260509051849 9 141 1.6 3.2 0.00 0.13 0.13 99 1011.1
20260509051347 9 140 1.6 1.6 0.18 0.13 0.13 99 1011.4
20260509050844 9 140 0.0 0.0 0.18 0.13 0.13 99 1011.1
20260509050340 9 135 1.6 3.2 0.00 0.10 0.10 99 1011.5
20260509045837 9 135 1.6 1.6 0.13 0.10 0.10 99 1011.4
20260509045334 9 135 1.6 1.6 0.13 0.10 0.10 99 1011.2
20260509044831 9 135 1.6 1.6 0.00 0.08 0.08 99 1011.2
20260509044329 9 135 1.6 1.6 0.18 0.08 0.08 99 1011.3
20260509043825 9 134 3.2 3.2 0.18 0.08 0.08 99 1011.2
20260509043321 9 140 1.6 1.6 0.18 0.05 0.05 99 1011.2
20260509042817 9 143 3.2 3.2 0.18 0.05 0.05 99 1011.3
20260509042314 9 145 0.0 0.0 0.18 0.05 0.05 99 1011.9
20260509041810 9 144 0.0 0.0 0.13 0.03 0.03 99 1011.8
20260509041308 9 143 4.8 4.8 0.13 0.03 0.03 99 1011.7
20260509040806 9 275 0.0 0.0 0.00 0.00 0.00 99 1011.6
20260509040303 9 278 0.0 0.0 0.00 0.00 0.00 99 1011.7
20260509035800 9 232 1.6 1.6 0.00 0.69 0.69 99 1011.5
20260509035257 9 126 0.0 1.6 0.00 0.69 0.69 99 1011.9
20260509034753 9 185 3.2 4.8 0.00 0.69 0.69 99 1011.7
20260509034251 9 199 1.6 1.6 0.18 0.69 0.69 99 1011.8
20260509033748 9 184 3.2 3.2 0.18 0.69 0.69 99 1011.9
20260509033245 9 172 1.6 1.6 0.00 0.66 0.66 99 1011.7
20260509032741 9 270 1.6 1.6 0.00 0.66 0.66 99 1011.9
20260509032239 9 261 1.6 3.2 0.13 0.66 0.66 99 1012.0
20260509031736 9 267 1.6 1.6 0.13 0.66 0.66 99 1011.9
20260509031234 9 278 0.0 0.0 0.00 0.64 0.64 99 1012.0
20260509030731 9 205 3.2 3.2 0.18 0.64 0.64 99 1012.1
20260509030229 9 270 1.6 1.6 0.18 0.64 0.64 99 1012.3
20260509025726 9 268 1.6 1.6 0.00 0.61 0.61 99 1012.3
20260509025221 9 251 1.6 3.2 0.13 0.61 0.61 99 1012.1
20260509024717 9 270 1.6 1.6 0.13 0.61 0.61 99 1012.2
20260509024212 9 277 1.6 1.6 0.00 0.58 0.58 99 1012.4
20260509023710 9 266 1.6 1.6 0.18 0.58 0.58 99 1012.1
20260509023207 9 261 1.6 1.6 0.18 0.58 0.58 99 1012.4
20260509022703 9 237 1.6 1.6 0.13 0.56 0.56 99 1012.3
20260509022201 10 272 1.6 1.6 0.13 0.56 0.56 99 1012.6
20260509021658 10 272 1.6 1.6 0.00 0.53 0.53 99 1012.3
20260509021155 10 276 1.6 1.6 0.18 0.53 0.53 99 1012.5
20260509020653 10 290 1.6 1.6 0.18 0.53 0.53 99 1012.6
20260509020150 10 290 1.6 1.6 0.13 0.51 0.51 99 1012.4
20260509015648 10 290 0.0 0.0 0.13 0.51 0.51 99 1012.6
20260509015146 10 290 0.0 0.0 0.18 0.48 0.48 99 1012.5
20260509014642 10 290 0.0 0.0 0.18 0.48 0.48 99 1012.6
20260509014139 10 290 0.0 0.0 0.13 0.46 0.46 99 1012.7
20260509013636 10 287 0.0 0.0 0.13 0.46 0.46 99 1012.4
20260509013131 10 299 0.0 0.0 0.18 0.43 0.43 98 1012.6
20260509012628 10 313 0.0 0.0 0.18 0.43 0.43 98 1012.4
20260509012125 10 314 0.0 0.0 0.00 0.41 0.41 98 1012.4
20260509011623 10 314 0.0 0.0 0.00 0.41 0.41 98 1012.4
20260509011120 9 314 0.0 0.0 0.00 0.41 0.41 98 1012.2
20260509010618 9 314 0.0 0.0 0.00 0.41 0.41 98 1012.2